Change the Weather History Date:

Wednesday, August 7, 2013

  Actual Average Record
Temperature  
Mean Temperature 80 °F -  
Max Temperature 88 °F 92 °F 98 °F (1968)
Min Temperature 72 °F 71 °F 66 °F (1964)
Cooling Degree Days 14    
Growing Degree Days 30 (Base 50)    
Moisture  
Dew Point 74 °F    
Average Humidity 85    
Maximum Humidity 100    
Minimum Humidity 65    
Precipitation  
Precipitation 0.00 in - - ()
Sea Level Pressure  
Sea Level Pressure 30.02 in    
Wind  
Wind Speed 3 mph (East)    
Max Wind Speed 9 mph    
Max Gust Speed -    
Visibility 10 miles    
Events Rain    
Averages and records for this station are not official NWS values.
T = Trace of Precipitation, MM = Missing Value Source: NWS Daily Summary

Daily Weather History Graph

Daily Weather History Graph

Search for Another Location

Airport or City:

Trip Planner

Search our weather history database for the weather conditions in past years. The results will help you decide how hot, cold, wet, or windy it might be!

Date:

Astronomy

Aug. 07, 2013 Rise Set
Actual Time 6:45 AM EDT 8:17 PM EDT
Civil Twilight 6:19 AM EDT 8:43 PM EDT
Nautical Twilight 5:48 AM EDT 9:15 PM EDT
Astronomical Twilight 5:15 AM EDT 9:47 PM EDT
Moon 7:26 AM EDT (8/7) 8:32 PM EDT (8/7)
Length of Visible Light 14h 24m
Length of Day
13h 31m
New Moon, 1% of the Moon is Illuminated
Aug 7
New Moon
Aug 14
First Quarter
Aug 20
Full
Aug 28
Last Quarter
Sep 5
New

Hourly Weather History & Observations

Time (EDT) Temp. Heat Index Dew Point Humidity Pressure Visibility Wind Dir Wind Speed Gust Speed Precip Events Conditions
12:58 AM 74.8 °F - 74.8 °F 100% 30.02 in 10.0 mi Calm Calm - N/A   Scattered Clouds
1:58 AM 74.3 °F - 74.3 °F 100% 30.01 in 10.0 mi Calm Calm - N/A   Clear
2:58 AM 73.4 °F - 73.4 °F 100% 29.99 in 10.0 mi Calm Calm - N/A   Partly Cloudy
3:58 AM 73.6 °F - 73.6 °F 100% 29.99 in 10.0 mi Calm Calm - N/A   Clear
4:58 AM 72.9 °F - 72.9 °F 100% 30.00 in 10.0 mi Calm Calm - N/A   Clear
5:58 AM 72.9 °F - 72.9 °F 100% 30.01 in 10.0 mi Calm Calm - N/A   Clear
6:58 AM 72.3 °F - 72.1 °F 99% 30.03 in 10.0 mi Calm Calm - N/A   Clear
7:58 AM 74.1 °F - 74.1 °F 100% 30.03 in 10.0 mi Calm Calm - N/A   Overcast
8:58 AM 79.3 °F - 77.5 °F 94% 30.05 in 10.0 mi East 3.5 mph - N/A   Scattered Clouds
9:58 AM 82.4 °F 91.2 °F 77.4 °F 85% 30.05 in 10.0 mi East 6.9 mph - N/A   Scattered Clouds
10:53 AM 84.2 °F 94.1 °F 77.0 °F 79% 30.05 in 10.0 mi East 9.2 mph - N/A   Mostly Cloudy
10:58 AM 84.2 °F 92.3 °F 75.2 °F 74% 30.06 in 10.0 mi East 8.1 mph - N/A   Scattered Clouds
11:58 AM 86.5 °F 97.8 °F 76.8 °F 73% 30.06 in 10.0 mi ENE 4.6 mph - N/A   Mostly Cloudy
12:58 PM 86.5 °F 96.4 °F 75.9 °F 70% 30.06 in 10.0 mi Variable 5.8 mph - N/A   Scattered Clouds
1:58 PM 87.1 °F 98.3 °F 76.5 °F 71% 30.05 in 10.0 mi East 8.1 mph - N/A   Mostly Cloudy
3:56 PM 87.8 °F 97.6 °F 75.2 °F 66% 30.00 in 10.0 mi East 6.9 mph - N/A   Partly Cloudy
4:58 PM 86.5 °F 94.6 °F 73.9 °F 66% 30.01 in 10.0 mi ESE 9.2 mph - N/A   Clear
5:58 PM 86.4 °F 93.8 °F 73.4 °F 65% 30.01 in 10.0 mi SE 9.2 mph - N/A   Clear
6:58 PM 84.9 °F 91.1 °F 72.3 °F 66% 30.00 in 10.0 mi East 6.9 mph - N/A   Clear
7:58 PM 81.1 °F 86.2 °F 73.2 °F 77% 30.00 in 10.0 mi East 6.9 mph - N/A   Clear
8:18 PM 80.6 °F 85.4 °F 73.4 °F 79% 30.00 in 10.0 mi East 4.6 mph - N/A Rain Light Rain
8:28 PM 78.8 °F - 73.4 °F 83% 30.00 in 10.0 mi East 5.8 mph - N/A   Clear
8:58 PM 77.9 °F - 73.4 °F 86% 30.01 in 10.0 mi ESE 4.6 mph - 0.00 in   Clear
9:58 PM 76.8 °F - 73.8 °F 90% 30.03 in 10.0 mi Calm Calm - N/A   Clear
10:58 PM 74.1 °F - 73.6 °F 98% 30.04 in 10.0 mi Calm Calm - N/A   Clear
11:58 PM 72.9 °F - 72.9 °F 100% 30.04 in 10.0 mi Calm Calm - N/A   Clear